Regional Weather Roundup
Issued by NWS

Home | Current Version | Previous Version | Text Only | Print | Product List | Glossary Off
Versions: 1 2 3 4 5 6 7 8 9 10 11 12 13 14 15 16 17 18 19 20 21 22 23 24 25 26 27

000
ASUS43 KDMX 180607
RWRIA

WEATHER ROUNDUP FOR IOWA
NATIONAL WEATHER SERVICE DES MOINES IA
100 AM CDT FRI APR 18 2014

NOTE: "FAIR" INDICATES FEW OR NO CLOUDS BELOW 12,000 FEET WITH NO
SIGNIFICANT WEATHER AND/OR OBSTRUCTIONS TO VISIBILITY.

* - THESE STATIONS ARE NOT NWS STATIONS...THUS NOT UNDER NWS
QUALITY CONTROL.  THEY ALSO DO NOT REPORT WEATHER SUCH
AS PRECIPITATION OR FOG.

IAZ001>003-012>014-020>022-031>034-043>046-180700-
   NORTHWEST IOWA

CITY           SKY/WX    TMP DP  RH WIND       PRES   REMARKS
CARROLL *      MOCLDY    34  27  75 E5        30.30S WCI  30
CHEROKEE *     MOCLDY    34  28  80 CALM      30.28S
DENISON *      MOCLDY    36  28  75 E8        30.27S WCI  29
LE MARS *      PTCLDY    39  30  70 E9        30.27S WCI  33
ORANGE CITY *  MOCLDY    37  30  75 E7        30.27S WCI  32
SHELDON *      CLOUDY    36  30  80 E12       30.27S WCI  27
SIOUX CITY       N/A     36  26  67 E8        30.26S WCI  30
6HR MIN TEMP:  36; 6HR MAX TEMP:  51;

SPENCER          N/A     30  26  85 NE5       30.29F WCI  25
6HR MIN TEMP:  29; 6HR MAX TEMP:  44;

STORM LAKE *   CLOUDY    34  28  80 E9        30.28S WCI  26
$$

IAZ055>058-069>071-079>083-090>094-180700-
   SOUTHWEST IOWA

CITY           SKY/WX    TMP DP  RH WIND       PRES   REMARKS
ATLANTIC *     CLOUDY    30  27  86 N6        30.28S WCI  24
AUDUBON *      CLEAR     34  25  69 CALM      30.29S
CLARINDA *     CLEAR     32  28  86 CALM      30.30R
COUNCIL BLFS * CLEAR     43  25  49 SE5       30.26R
CRESTON *      CLEAR     37  30  75 E3        30.28R
HARLAN  *      CLEAR     34  25  69 N5        30.31S WCI  30
LAMONI           N/A     40  32  73 SW6       30.27S
6HR MIN TEMP:  38; 6HR MAX TEMP:  53;

RED OAK *      CLEAR     36  28  75 CALM      30.28S
SHENANDOAH *   CLEAR     34  30  86 CALM      30.29R
$$

IAZ047>049-059>061-072>074-084-180700-
   CENTRAL IOWA

CITY           SKY/WX    TMP DP  RH WIND       PRES   REMARKS
AMES             N/A     34  29  82 NE6       30.31R WCI  29
6HR MIN TEMP:  34; 6HR MAX TEMP:  50;

ANKENY *       CLEAR     34  30  86 N6        30.30S WCI  29
CHARITON *     MOCLDY    36  30  80 CALM      30.29R
DES MOINES       N/A     41  31  67 E8        30.30R
6HR MIN TEMP:  41; 6HR MAX TEMP:  55;

GRINNELL*        N/A     32  30  93 NE7       30.30S WCI  26
KNOXVILLE *    CLEAR     39  30  70 NE6       30.29S WCI  35
MARSHALLTOWN     N/A     31  28  89 NE7       30.31R WCI  24
6HR MIN TEMP:  31; 6HR MAX TEMP:  47;

NEWTON *       CLEAR     36  30  80 NE8       30.31R WCI  29
PELLA *          N/A     36  30  80 CALM      30.30S
PERRY *          N/A     37  30  75 E5        30.31R WCI  34
$$

IAZ004>006-015-016-023>025-035-036-180700-
   NORTH CENTRAL IOWA

CITY           SKY/WX    TMP DP  RH WIND       PRES   REMARKS
ALGONA *       PTCLDY    32  30  93 E5        30.31S WCI  27
CLARION *      CLEAR     28  27  93 E9        30.31S WCI  20
ESTHERVILLE      N/A     28  27  96 E5        30.29S WCI  23
6HR MIN TEMP:  26; 6HR MAX TEMP:  42;

FORT DODGE *     N/A     30  25  80 E6        30.31S WCI  24
MASON CITY       N/A     26  24  92 CALM      30.33R FOG
6HR MIN TEMP:  25; 6HR MAX TEMP:  40;

FOREST CITY *  CLEAR     27  27 100 CALM      30.31S FOG
IOWA FALLS *     N/A     32  28  86 NE3       30.32S
$$

IAZ007>011-017>019-026>030-037>042-050>054-066-180700-
   NORTHEAST IOWA

CITY           SKY/WX    TMP DP  RH WIND       PRES   REMARKS
CEDAR RAPIDS     N/A     32  27  81 N8        30.30S WCI  25
6HR MIN TEMP:  32; 6HR MAX TEMP:  49;

CHARLES CITY * CLEAR     32  28  86 NE5       30.33R WCI  27
CLINTON *        N/A     36  30  80 N10       30.32R WCI  28
DECORAH *      MOCLDY    32  28  86 CALM      30.31R
DUBUQUE          N/A     34  30  85 N9        30.30R WCI  27
6HR MIN TEMP:  33; 6HR MAX TEMP:  48;

MONTICELLO *   CLEAR     34  30  86 N5        30.31S WCI  30
OELWEIN *      CLEAR    N/A N/A N/A N6        30.32S
WATERLOO         N/A     30  27  88 N3        30.32R
6HR MIN TEMP:  28; 6HR MAX TEMP:  44;

$$

IAZ064-065-067-068-078-180700-
   EAST CENTRAL IOWA

CITY           SKY/WX    TMP DP  RH WIND       PRES   REMARKS
DAVENPORT        N/A     36  31  82 NW9       30.31R WCI  29
6HR MIN TEMP:  36; 6HR MAX TEMP:  53;

IOWA CITY        N/A     38  32  79 N8        30.32R WCI  32
6HR MIN TEMP:  38; 6HR MAX TEMP:  50;

MT. PLEASANT *   N/A     39  32  75 N8        30.29S WCI  34
MUSCATINE *    CLEAR     36  32  87 CALM      30.30S
QUAD CITIES      N/A     42  33  70 NW6       30.29R
6HR MIN TEMP:  35; 6HR MAX TEMP:  52;

$$

IAZ062-063-075>077-085>089-095>099-180700-
   SOUTHEAST IOWA

CITY           SKY/WX    TMP DP  RH WIND       PRES   REMARKS
BURLINGTON       N/A     40  34  79 N6        30.28S
6HR MIN TEMP:  39; 6HR MAX TEMP:  51;

FAIRFIELD *    CLEAR     34  30  86 N9        30.29S WCI  26
FORT MADISON * CLEAR     39  36  87 N3        30.29S
KEOKUK *       CLEAR     43  36  75 NW6       30.28S
OSKALOOSA *      N/A     35  31  87 NE7       30.30R WCI  29
CENTERVILLE *  CLEAR     39  32  75 CALM      30.30S
OTTUMWA          N/A     37  30  75 NE9       30.28F WCI  30
6HR MIN TEMP:  37; 6HR MAX TEMP:  51;

WASHINGTON *   PTCLDY    36  32  87 N10       30.30S WCI  28
$$

ABBREVIATIONS USED IN REMARKS
   TC - TEMPERATURES IN CELSIUS
  WCI - WIND CHILL INDEX
   HX - HEAT INDEX
  VSB - VISIBILITY
$$




USA.gov is the U.S. government's official web portal to all federal, state and local government web resources and services.